Time,TemperatureF,DewpointF,PressureIn,WindDirection,WindDirectionDegrees,WindSpeedMPH,WindSpeedGustMPH,Humidity,HourlyPrecipIn,Conditions,Clouds,dailyrainin,SoftwareType,DateUTC
2013-01-16 00:00:00,44.0,8.5,30.01,North,360,0.0,0.0,23,0.04,,,0.79,Wunderground v.1.15,2013-01-16 05:00:00,
2013-01-16 00:05:00,44.0,9.5,30.00,North,360,0.0,0.0,24,0.00,,,0.00,Wunderground v.1.15,2013-01-16 05:05:00,
2013-01-16 00:10:00,44.0,9.5,30.00,North,360,0.0,0.0,24,0.00,,,0.00,Wunderground v.1.15,2013-01-16 05:10:00,
2013-01-16 00:15:00,44.1,9.5,30.00,North,360,0.0,0.0,24,0.00,,,0.00,Wunderground v.1.15,2013-01-16 05:15:00,
2013-01-16 00:25:00,44.1,9.5,30.00,North,360,0.0,0.0,24,0.00,,,0.00,Wunderground v.1.15,2013-01-16 05:25:00,
2013-01-16 00:30:00,44.1,9.5,29.99,North,360,0.0,0.0,24,0.00,,,0.00,Wunderground v.1.15,2013-01-16 05:30:00,
2013-01-16 00:35:00,44.1,9.5,30.00,North,360,0.0,0.0,24,0.00,,,0.00,Wunderground v.1.15,2013-01-16 05:35:00,
2013-01-16 00:40:00,44.1,9.5,30.00,North,360,0.0,0.0,24,0.00,,,0.00,Wunderground v.1.15,2013-01-16 05:40:00,
2013-01-16 00:45:00,44.1,9.5,30.00,North,360,0.0,0.0,24,0.00,,,0.00,Wunderground v.1.15,2013-01-16 05:45:00,
2013-01-16 00:55:00,44.2,9.6,29.99,North,360,0.0,0.0,24,0.00,,,0.00,Wunderground v.1.15,2013-01-16 05:55:00,
2013-01-16 01:00:00,44.2,9.6,29.99,North,360,0.0,0.0,24,0.00,,,0.01,Wunderground v.1.15,2013-01-16 06:00:00,
2013-01-16 01:05:00,44.2,9.6,29.99,North,360,0.0,0.0,24,0.00,,,0.01,Wunderground v.1.15,2013-01-16 06:05:00,
2013-01-16 01:10:00,44.2,9.6,29.99,North,360,0.0,0.0,24,0.00,,,0.01,Wunderground v.1.15,2013-01-16 06:10:00,
2013-01-16 01:15:00,44.3,9.7,29.99,North,360,0.0,0.0,24,0.00,,,0.01,Wunderground v.1.15,2013-01-16 06:15:00,
2013-01-16 01:20:00,44.3,9.7,29.98,North,360,0.0,0.0,24,0.00,,,0.01,Wunderground v.1.15,2013-01-16 06:20:00,
2013-01-16 01:25:00,44.3,9.7,29.98,North,360,0.0,0.0,24,0.00,,,0.02,Wunderground v.1.15,2013-01-16 06:25:00,
2013-01-16 01:30:00,44.3,9.7,29.99,North,360,0.0,0.0,24,0.00,,,0.02,Wunderground v.1.15,2013-01-16 06:30:00,
2013-01-16 01:35:00,44.3,9.7,29.99,North,360,0.0,0.0,24,0.00,,,0.02,Wunderground v.1.15,2013-01-16 06:35:00,
2013-01-16 01:40:00,44.3,9.7,29.99,North,360,0.0,0.0,24,0.00,,,0.02,Wunderground v.1.15,2013-01-16 06:40:00,
2013-01-16 01:45:00,44.4,9.8,29.98,North,360,0.0,0.0,24,0.00,,,0.02,Wunderground v.1.15,2013-01-16 06:45:00,
2013-01-16 01:50:00,44.4,9.8,29.99,North,360,0.0,0.0,24,0.00,,,0.02,Wunderground v.1.15,2013-01-16 06:50:00,
2013-01-16 02:00:00,44.5,9.9,29.98,North,360,0.0,0.0,24,0.00,,,0.03,Wunderground v.1.15,2013-01-16 07:00:00,
2013-01-16 02:10:00,44.6,10.0,29.98,North,360,0.0,0.0,24,0.00,,,0.03,Wunderground v.1.15,2013-01-16 07:10:00,
2013-01-16 02:15:00,44.6,10.0,29.98,North,360,0.0,0.0,24,0.00,,,0.03,Wunderground v.1.15,2013-01-16 07:15:00,
2013-01-16 02:20:00,44.6,10.0,29.98,North,360,0.0,0.0,24,0.00,,,0.03,Wunderground v.1.15,2013-01-16 07:20:00,
2013-01-16 02:25:00,44.6,10.0,29.98,North,360,0.0,0.0,24,0.00,,,0.03,Wunderground v.1.15,2013-01-16 07:25:00,
2013-01-16 02:35:00,44.6,10.0,29.98,North,360,0.0,0.0,24,0.00,,,0.03,Wunderground v.1.15,2013-01-16 07:35:00,
2013-01-16 02:40:00,44.6,10.0,29.98,North,360,0.0,0.0,24,0.00,,,0.03,Wunderground v.1.15,2013-01-16 07:40:00,
2013-01-16 02:45:00,44.6,10.0,29.98,North,360,0.0,0.0,24,0.00,,,0.03,Wunderground v.1.15,2013-01-16 07:45:00,
2013-01-16 02:50:00,44.7,10.1,29.97,North,360,0.0,0.0,24,0.00,,,0.03,Wunderground v.1.15,2013-01-16 07:50:00,
2013-01-16 02:55:00,44.7,10.1,29.97,North,360,0.0,0.0,24,0.00,,,0.03,Wunderground v.1.15,2013-01-16 07:55:00,
2013-01-16 03:00:00,44.7,10.1,29.97,North,360,0.0,0.0,24,0.00,,,0.03,Wunderground v.1.15,2013-01-16 08:00:00,
2013-01-16 03:10:00,44.7,10.1,29.97,North,360,0.0,0.0,24,0.00,,,0.03,Wunderground v.1.15,2013-01-16 08:10:00,
2013-01-16 03:15:00,44.7,10.1,29.97,North,360,0.0,0.0,24,0.00,,,0.03,Wunderground v.1.15,2013-01-16 08:15:00,
2013-01-16 03:20:00,44.7,10.1,29.97,North,360,0.0,0.0,24,0.00,,,0.03,Wunderground v.1.15,2013-01-16 08:20:00,
2013-01-16 03:25:00,44.7,10.1,29.97,North,360,0.0,0.0,24,0.00,,,0.03,Wunderground v.1.15,2013-01-16 08:25:00,
2013-01-16 03:30:00,44.7,10.1,29.97,North,360,0.0,0.0,24,0.00,,,0.03,Wunderground v.1.15,2013-01-16 08:30:00,
2013-01-16 03:40:00,44.7,10.1,29.97,North,360,0.0,0.0,24,0.32,,,0.07,Wunderground v.1.15,2013-01-16 08:40:00,
2013-01-16 03:45:00,44.8,10.1,29.98,North,360,0.0,0.0,24,0.15,,,0.08,Wunderground v.1.15,2013-01-16 08:45:00,
2013-01-16 03:50:00,44.8,10.1,29.97,North,360,0.0,0.0,24,0.07,,,0.09,Wunderground v.1.15,2013-01-16 08:50:00,
2013-01-16 03:55:00,44.8,11.1,29.97,North,360,0.0,0.0,25,0.07,,,0.09,Wunderground v.1.15,2013-01-16 08:55:00,
2013-01-16 04:00:00,44.8,11.1,29.97,North,360,0.0,0.0,25,0.06,,,0.09,Wunderground v.1.15,2013-01-16 09:00:00,
2013-01-16 04:05:00,44.9,11.1,29.96,North,360,0.0,0.0,25,0.04,,,0.09,Wunderground v.1.15,2013-01-16 09:05:00,
2013-01-16 04:15:00,44.9,11.1,29.96,North,360,0.0,0.0,25,0.00,,,0.09,Wunderground v.1.15,2013-01-16 09:15:00,
2013-01-16 04:20:00,45.0,11.2,29.96,North,360,0.0,0.0,25,0.00,,,0.09,Wunderground v.1.15,2013-01-16 09:20:00,
2013-01-16 04:25:00,44.9,11.1,29.96,North,360,0.0,0.0,25,0.00,,,0.09,Wunderground v.1.15,2013-01-16 09:25:00,
2013-01-16 04:30:00,44.9,11.1,29.95,North,360,0.0,0.0,25,0.00,,,0.10,Wunderground v.1.15,2013-01-16 09:30:00,
2013-01-16 04:35:00,45.0,11.2,29.96,North,360,0.0,0.0,25,0.00,,,0.10,Wunderground v.1.15,2013-01-16 09:35:00,
2013-01-16 04:45:00,45.0,11.2,29.96,North,360,0.0,0.0,25,0.00,,,0.10,Wunderground v.1.15,2013-01-16 09:45:00,
2013-01-16 04:50:00,45.1,11.3,29.95,North,360,0.0,0.0,25,0.00,,,0.10,Wunderground v.1.15,2013-01-16 09:50:00,
2013-01-16 04:55:00,45.1,11.3,29.95,North,360,0.0,0.0,25,0.00,,,0.10,Wunderground v.1.15,2013-01-16 09:55:00,
2013-01-16 05:00:00,45.2,11.4,29.95,North,360,0.0,0.0,25,0.00,,,0.10,Wunderground v.1.15,2013-01-16 10:00:00,
2013-01-16 05:05:00,45.3,11.5,29.94,North,360,0.0,0.0,25,0.00,,,0.10,Wunderground v.1.15,2013-01-16 10:05:00,
2013-01-16 05:10:00,45.4,11.6,29.94,North,360,0.0,0.0,25,0.00,,,0.10,Wunderground v.1.15,2013-01-16 10:10:00,
2013-01-16 05:15:00,45.4,11.6,29.94,North,360,0.0,0.0,25,0.00,,,0.10,Wunderground v.1.15,2013-01-16 10:15:00,
2013-01-16 05:20:00,45.4,11.6,29.94,North,360,0.0,0.0,25,0.00,,,0.10,Wunderground v.1.15,2013-01-16 10:20:00,
2013-01-16 05:25:00,45.5,11.7,29.94,North,360,0.0,0.0,25,0.00,,,0.10,Wunderground v.1.15,2013-01-16 10:25:00,
2013-01-16 05:30:00,45.6,11.7,29.94,North,360,0.0,0.0,25,0.00,,,0.10,Wunderground v.1.15,2013-01-16 10:30:00,
2013-01-16 05:35:00,45.7,11.8,29.94,North,360,0.0,1.0,25,0.00,,,0.10,Wunderground v.1.15,2013-01-16 10:35:00,
2013-01-16 05:40:00,45.8,11.9,29.94,North,360,0.0,1.0,25,0.00,,,0.10,Wunderground v.1.15,2013-01-16 10:40:00,
2013-01-16 05:50:00,45.9,12.0,29.94,North,360,0.0,0.0,25,0.00,,,0.10,Wunderground v.1.15,2013-01-16 10:50:00,
2013-01-16 05:55:00,46.0,12.1,29.93,North,360,0.0,0.0,25,0.00,,,0.10,Wunderground v.1.15,2013-01-16 10:55:00,
2013-01-16 06:00:00,46.1,12.2,29.94,North,360,0.0,0.0,25,0.00,,,0.10,Wunderground v.1.15,2013-01-16 11:00:00,
2013-01-16 06:10:00,46.2,12.3,29.94,North,360,0.0,0.0,25,0.00,,,0.10,Wunderground v.1.15,2013-01-16 11:10:00,
2013-01-16 06:20:00,46.3,12.3,29.94,North,360,0.0,0.0,25,0.00,,,0.10,Wunderground v.1.15,2013-01-16 11:20:00,
2013-01-16 06:25:00,46.4,12.4,29.94,North,360,0.0,0.0,25,0.00,,,0.10,Wunderground v.1.15,2013-01-16 11:25:00,
2013-01-16 06:30:00,46.5,12.5,29.93,North,360,0.0,0.0,25,0.00,,,0.10,Wunderground v.1.15,2013-01-16 11:30:00,
2013-01-16 06:35:00,46.5,12.5,29.93,North,360,0.0,0.0,25,0.00,,,0.10,Wunderground v.1.15,2013-01-16 11:35:00,
2013-01-16 06:40:00,46.6,12.6,29.94,North,360,0.0,0.0,25,0.00,,,0.10,Wunderground v.1.15,2013-01-16 11:40:00,
2013-01-16 06:45:00,46.6,12.6,29.94,North,360,0.0,0.0,25,0.00,,,0.11,Wunderground v.1.15,2013-01-16 11:45:00,
2013-01-16 06:55:00,46.7,12.7,29.94,North,360,0.0,0.0,25,0.09,,,0.12,Wunderground v.1.15,2013-01-16 11:55:00,
2013-01-16 07:00:00,46.8,12.8,29.94,North,360,0.0,0.0,25,0.06,,,0.12,Wunderground v.1.15,2013-01-16 12:00:00,
2013-01-16 07:05:00,46.8,12.8,29.95,North,360,0.0,0.0,25,0.04,,,0.13,Wunderground v.1.15,2013-01-16 12:05:00,
2013-01-16 07:10:00,46.8,12.8,29.95,North,360,0.0,0.0,25,0.04,,,0.13,Wunderground v.1.15,2013-01-16 12:10:00,
2013-01-16 07:15:00,46.9,12.9,29.95,North,360,0.0,0.0,25,0.17,,,0.15,Wunderground v.1.15,2013-01-16 12:15:00,
2013-01-16 07:25:00,47.0,12.9,29.95,North,360,0.0,0.0,25,0.13,,,0.18,Wunderground v.1.15,2013-01-16 12:25:00,
2013-01-16 07:30:00,47.0,12.9,29.95,North,360,0.0,0.0,25,0.11,,,0.18,Wunderground v.1.15,2013-01-16 12:30:00,
2013-01-16 07:35:00,47.1,13.0,29.95,North,360,0.0,0.0,25,0.06,,,0.19,Wunderground v.1.15,2013-01-16 12:35:00,
2013-01-16 07:40:00,47.3,13.2,29.95,North,360,0.0,0.0,25,0.30,,,0.21,Wunderground v.1.15,2013-01-16 12:40:00,
2013-01-16 07:45:00,47.3,13.2,29.95,North,360,0.0,0.0,25,0.15,,,0.22,Wunderground v.1.15,2013-01-16 12:45:00,
2013-01-16 07:50:00,47.4,13.3,29.95,North,360,0.0,0.0,25,0.14,,,0.24,Wunderground v.1.15,2013-01-16 12:50:00,
2013-01-16 08:00:00,47.4,13.3,29.96,North,360,0.0,0.0,25,0.06,,,0.24,Wunderground v.1.15,2013-01-16 13:00:00,
2013-01-16 08:05:00,47.4,13.3,29.96,North,360,0.0,0.0,25,0.04,,,0.24,Wunderground v.1.15,2013-01-16 13:05:00,
2013-01-16 08:10:00,47.5,13.4,29.96,North,360,0.0,0.0,25,0.00,,,0.24,Wunderground v.1.15,2013-01-16 13:10:00,
2013-01-16 08:15:00,47.5,13.4,29.96,North,360,0.0,0.0,25,0.00,,,0.24,Wunderground v.1.15,2013-01-16 13:15:00,
2013-01-16 08:20:00,47.6,13.5,29.97,North,360,0.0,0.0,25,0.00,,,0.24,Wunderground v.1.15,2013-01-16 13:20:00,
2013-01-16 08:30:00,47.7,14.4,29.97,North,360,0.0,0.0,26,0.00,,,0.24,Wunderground v.1.15,2013-01-16 13:30:00,
2013-01-16 08:35:00,47.8,14.5,29.97,North,360,0.0,0.0,26,0.00,,,0.24,Wunderground v.1.15,2013-01-16 13:35:00,
2013-01-16 08:40:00,47.8,14.5,29.96,North,360,0.0,0.0,26,0.00,,,0.24,Wunderground v.1.15,2013-01-16 13:40:00,
2013-01-16 08:45:00,47.9,14.6,29.96,North,360,0.0,0.0,26,0.00,,,0.24,Wunderground v.1.15,2013-01-16 13:45:00,
2013-01-16 08:50:00,47.9,14.6,29.96,North,360,0.0,0.0,26,0.00,,,0.24,Wunderground v.1.15,2013-01-16 13:50:00,
2013-01-16 08:55:00,48.1,14.8,29.96,North,360,0.0,0.0,26,0.00,,,0.24,Wunderground v.1.15,2013-01-16 13:55:00,
2013-01-16 09:00:00,48.2,14.9,29.97,North,360,0.0,0.0,26,0.00,,,0.24,Wunderground v.1.15,2013-01-16 14:00:00,
2013-01-16 09:10:00,48.4,15.0,29.97,North,360,0.0,0.0,26,0.00,,,0.24,Wunderground v.1.15,2013-01-16 14:10:00,
2013-01-16 09:15:00,48.5,15.1,29.98,North,360,0.0,0.0,26,0.00,,,0.24,Wunderground v.1.15,2013-01-16 14:15:00,
2013-01-16 09:20:00,48.6,15.2,29.98,North,360,0.0,0.0,26,0.00,,,0.24,Wunderground v.1.15,2013-01-16 14:20:00,
2013-01-16 09:25:00,48.7,15.3,29.98,North,360,0.0,0.0,26,0.00,,,0.24,Wunderground v.1.15,2013-01-16 14:25:00,
2013-01-16 09:30:00,48.8,15.4,29.99,North,360,0.0,0.0,26,0.00,,,0.24,Wunderground v.1.15,2013-01-16 14:30:00,
2013-01-16 09:35:00,49.0,15.6,29.99,North,360,0.0,0.0,26,0.00,,,0.24,Wunderground v.1.15,2013-01-16 14:35:00,
2013-01-16 09:40:00,49.1,15.6,29.99,North,360,0.0,0.0,26,0.00,,,0.24,Wunderground v.1.15,2013-01-16 14:40:00,
2013-01-16 09:45:00,49.3,15.8,30.00,North,360,0.0,0.0,26,0.00,,,0.24,Wunderground v.1.15,2013-01-16 14:45:00,
2013-01-16 09:50:00,49.4,15.9,30.00,North,360,0.0,0.0,26,0.00,,,0.24,Wunderground v.1.15,2013-01-16 14:50:00,
2013-01-16 09:55:00,49.5,16.0,30.00,North,360,0.0,0.0,26,0.00,,,0.24,Wunderground v.1.15,2013-01-16 14:55:00,
2013-01-16 10:05:00,49.7,16.2,30.00,SW,217,0.0,0.0,26,0.00,,,0.24,Wunderground v.1.15,2013-01-16 15:05:00,
2013-01-16 10:10:00,49.8,16.2,30.00,SW,217,0.0,0.0,26,0.00,,,0.24,Wunderground v.1.15,2013-01-16 15:10:00,
2013-01-16 10:15:00,49.9,16.3,30.00,SW,217,0.0,0.0,26,0.00,,,0.24,Wunderground v.1.15,2013-01-16 15:15:00,
2013-01-16 10:20:00,50.0,16.4,30.00,SW,217,0.0,0.0,26,0.00,,,0.24,Wunderground v.1.15,2013-01-16 15:20:00,
2013-01-16 10:25:00,50.1,16.5,30.00,SW,217,0.0,0.0,26,0.00,,,0.24,Wunderground v.1.15,2013-01-16 15:25:00,
2013-01-16 10:30:00,50.2,16.6,30.00,SW,217,0.0,0.0,26,0.00,,,0.24,Wunderground v.1.15,2013-01-16 15:30:00,
2013-01-16 10:40:00,50.3,16.7,30.00,SW,217,0.0,1.0,26,0.00,,,0.24,Wunderground v.1.15,2013-01-16 15:40:00,
2013-01-16 10:45:00,50.4,16.8,29.99,SW,217,0.0,1.0,26,0.00,,,0.24,Wunderground v.1.15,2013-01-16 15:45:00,
2013-01-16 10:50:00,50.4,16.8,30.00,SW,217,0.0,0.0,26,0.00,,,0.24,Wunderground v.1.15,2013-01-16 15:50:00,
2013-01-16 10:55:00,50.3,16.7,29.99,SW,217,0.0,0.0,26,0.00,,,0.24,Wunderground v.1.15,2013-01-16 15:55:00,
2013-01-16 11:00:00,50.3,16.7,29.99,SW,217,0.0,0.0,26,0.00,,,0.24,Wunderground v.1.15,2013-01-16 16:00:00,
2013-01-16 11:10:00,50.4,16.8,30.00,SW,217,0.0,0.0,26,0.00,,,0.24,Wunderground v.1.15,2013-01-16 16:10:00,
2013-01-16 11:15:00,50.5,16.8,30.00,SW,217,0.0,0.0,26,0.00,,,0.24,Wunderground v.1.15,2013-01-16 16:15:00,
2013-01-16 11:20:00,50.5,16.8,29.98,SW,217,0.0,1.0,26,0.00,,,0.24,Wunderground v.1.15,2013-01-16 16:20:00,
2013-01-16 11:25:00,50.6,16.9,29.97,SW,217,0.0,1.0,26,0.00,,,0.25,Wunderground v.1.15,2013-01-16 16:25:00,
2013-01-16 11:30:00,50.8,17.1,29.97,SW,217,0.0,0.0,26,0.00,,,0.25,Wunderground v.1.15,2013-01-16 16:30:00,
2013-01-16 11:35:00,51.0,17.3,29.97,SW,217,0.0,0.0,26,0.00,,,0.25,Wunderground v.1.15,2013-01-16 16:35:00,
2013-01-16 11:45:00,51.2,17.4,29.97,SW,217,0.0,0.0,26,0.00,,,0.25,Wunderground v.1.15,2013-01-16 16:45:00,
2013-01-16 11:50:00,51.4,17.6,29.97,SW,217,0.0,0.0,26,0.00,,,0.25,Wunderground v.1.15,2013-01-16 16:50:00,
2013-01-16 11:55:00,51.4,17.6,29.97,SW,217,0.0,0.0,26,0.00,,,0.25,Wunderground v.1.15,2013-01-16 16:55:00,
2013-01-16 12:00:00,51.5,17.7,29.97,SW,217,0.0,0.0,26,0.00,,,0.25,Wunderground v.1.15,2013-01-16 17:00:00,
2013-01-16 12:10:00,51.7,17.9,29.97,SW,217,0.0,0.0,26,0.00,,,0.25,Wunderground v.1.15,2013-01-16 17:10:00,
2013-01-16 12:15:00,51.8,18.0,29.97,SW,217,0.0,0.0,26,0.00,,,0.25,Wunderground v.1.15,2013-01-16 17:15:00,
2013-01-16 12:20:00,51.9,18.0,29.96,SW,217,0.0,0.0,26,0.00,,,0.25,Wunderground v.1.15,2013-01-16 17:20:00,
2013-01-16 12:25:00,52.0,18.1,29.96,SW,217,0.0,0.0,26,0.00,,,0.25,Wunderground v.1.15,2013-01-16 17:25:00,
2013-01-16 12:30:00,52.1,18.2,29.96,SW,217,0.0,0.0,26,0.00,,,0.25,Wunderground v.1.15,2013-01-16 17:30:00,
2013-01-16 12:35:00,52.1,18.2,29.97,SW,217,0.0,0.0,26,0.00,,,0.25,Wunderground v.1.15,2013-01-16 17:35:00,
2013-01-16 12:40:00,52.2,18.3,29.96,SW,217,0.0,0.0,26,0.00,,,0.25,Wunderground v.1.15,2013-01-16 17:40:00,
2013-01-16 12:50:00,52.3,18.4,29.95,SW,217,0.0,0.0,26,0.00,,,0.25,Wunderground v.1.15,2013-01-16 17:50:00,
2013-01-16 12:55:00,52.4,18.5,29.95,SW,217,0.0,0.0,26,0.00,,,0.25,Wunderground v.1.15,2013-01-16 17:55:00,
2013-01-16 13:00:00,52.4,18.5,29.95,SW,217,0.0,0.0,26,0.00,,,0.25,Wunderground v.1.15,2013-01-16 18:00:00,
2013-01-16 13:05:00,52.4,18.5,29.96,SW,217,0.0,0.0,26,0.00,,,0.25,Wunderground v.1.15,2013-01-16 18:05:00,
2013-01-16 13:10:00,52.4,18.5,29.95,SW,217,0.0,0.0,26,0.00,,,0.25,Wunderground v.1.15,2013-01-16 18:10:00,
2013-01-16 13:15:00,52.6,18.6,29.95,SW,217,0.0,0.0,26,0.00,,,0.25,Wunderground v.1.15,2013-01-16 18:15:00,
2013-01-16 13:20:00,52.7,18.7,29.95,SW,217,0.0,0.0,26,0.00,,,0.25,Wunderground v.1.15,2013-01-16 18:20:00,
2013-01-16 13:25:00,53.0,19.0,29.95,SW,217,0.0,0.0,26,0.00,,,0.25,Wunderground v.1.15,2013-01-16 18:25:00,
2013-01-16 13:30:00,53.1,19.1,29.94,SW,217,0.0,0.0,26,0.00,,,0.25,Wunderground v.1.15,2013-01-16 18:30:00,
2013-01-16 13:35:00,53.2,19.2,29.94,SW,217,0.0,0.0,26,0.00,,,0.25,Wunderground v.1.15,2013-01-16 18:35:00,
2013-01-16 13:40:00,53.3,19.2,29.93,SW,217,0.0,0.0,26,0.00,,,0.25,Wunderground v.1.15,2013-01-16 18:40:00,
2013-01-16 13:55:00,53.9,19.8,29.94,SW,217,0.0,1.0,26,0.00,,,0.25,Wunderground v.1.15,2013-01-16 18:55:00,
2013-01-16 14:00:00,53.9,19.8,29.94,SW,217,0.0,0.0,26,0.00,,,0.25,Wunderground v.1.15,2013-01-16 19:00:00,
2013-01-16 14:05:00,53.9,19.8,29.94,SW,217,0.0,0.0,26,0.00,,,0.25,Wunderground v.1.15,2013-01-16 19:05:00,
2013-01-16 14:10:00,54.0,19.8,29.94,SW,217,0.0,0.0,26,0.00,,,0.25,Wunderground v.1.15,2013-01-16 19:10:00,
2013-01-16 14:15:00,54.1,19.9,29.95,SW,217,0.0,0.0,26,0.00,,,0.25,Wunderground v.1.15,2013-01-16 19:15:00,
2013-01-16 14:20:00,54.2,20.0,29.95,SW,217,0.0,0.0,26,0.00,,,0.25,Wunderground v.1.15,2013-01-16 19:20:00,
2013-01-16 14:30:00,54.4,19.3,29.95,SW,217,0.0,0.0,25,0.00,,,0.25,Wunderground v.1.15,2013-01-16 19:30:00,
2013-01-16 14:35:00,54.5,19.3,29.95,SW,217,0.0,0.0,25,0.00,,,0.25,Wunderground v.1.15,2013-01-16 19:35:00,
2013-01-16 14:40:00,54.5,19.3,29.95,SW,217,0.0,0.0,25,0.00,,,0.25,Wunderground v.1.15,2013-01-16 19:40:00,
2013-01-16 14:45:00,54.5,19.3,29.94,SW,217,0.0,0.0,25,0.00,,,0.25,Wunderground v.1.15,2013-01-16 19:45:00,
2013-01-16 14:50:00,54.6,19.4,29.94,SW,217,0.0,0.0,25,0.00,,,0.25,Wunderground v.1.15,2013-01-16 19:50:00,
2013-01-16 15:00:00,54.6,19.4,29.94,SW,217,0.0,0.0,25,0.00,,,0.25,Wunderground v.1.15,2013-01-16 20:00:00,
2013-01-16 15:10:00,54.7,19.5,29.95,SW,217,0.0,0.0,25,0.00,,,0.25,Wunderground v.1.15,2013-01-16 20:10:00,
2013-01-16 15:15:00,54.7,19.5,29.95,SW,217,0.0,0.0,25,0.00,,,0.25,Wunderground v.1.15,2013-01-16 20:15:00,
2013-01-16 15:20:00,54.8,19.6,29.95,SW,217,0.0,0.0,25,0.00,,,0.25,Wunderground v.1.15,2013-01-16 20:20:00,
2013-01-16 15:25:00,54.8,19.6,29.95,SW,217,0.0,0.0,25,0.00,,,0.25,Wunderground v.1.15,2013-01-16 20:25:00,
2013-01-16 15:35:00,54.8,19.6,29.95,SW,217,0.0,0.0,25,0.00,,,0.25,Wunderground v.1.15,2013-01-16 20:35:00,
2013-01-16 15:40:00,54.8,19.6,29.95,SW,217,0.0,0.0,25,0.00,,,0.25,Wunderground v.1.15,2013-01-16 20:40:00,
2013-01-16 15:45:00,54.8,19.6,29.95,SW,217,0.0,0.0,25,0.00,,,0.25,Wunderground v.1.15,2013-01-16 20:45:00,
2013-01-16 15:50:00,54.6,18.5,29.95,SW,217,0.0,0.0,24,0.00,,,0.25,Wunderground v.1.15,2013-01-16 20:50:00,
2013-01-16 15:55:00,54.6,18.5,29.95,SW,217,0.0,0.0,24,0.00,,,0.25,Wunderground v.1.15,2013-01-16 20:55:00,
2013-01-16 16:00:00,54.5,18.4,29.95,SW,217,0.0,1.0,24,0.00,,,0.25,Wunderground v.1.15,2013-01-16 21:00:00,
2013-01-16 16:05:00,54.4,18.3,29.94,SE,138,1.0,1.0,24,0.00,,,0.25,Wunderground v.1.15,2013-01-16 21:05:00,
2013-01-16 16:10:00,54.4,18.3,29.96,SW,221,1.0,1.0,24,0.00,,,0.25,Wunderground v.1.15,2013-01-16 21:10:00,
2013-01-16 16:15:00,54.4,18.3,29.95,SW,221,0.0,1.0,24,0.00,,,0.25,Wunderground v.1.15,2013-01-16 21:15:00,
2013-01-16 16:20:00,54.4,18.3,29.95,SW,221,0.0,0.0,24,0.00,,,0.25,Wunderground v.1.15,2013-01-16 21:20:00,
2013-01-16 16:30:00,54.4,18.3,29.95,SW,221,0.0,0.0,24,0.00,,,0.25,Wunderground v.1.15,2013-01-16 21:30:00,
2013-01-16 16:35:00,54.4,18.3,29.95,SW,221,0.0,0.0,24,0.00,,,0.25,Wunderground v.1.15,2013-01-16 21:35:00,
2013-01-16 16:40:00,54.4,18.3,29.95,SW,221,0.0,0.0,24,0.00,,,0.25,Wunderground v.1.15,2013-01-16 21:40:00,
2013-01-16 16:45:00,54.5,18.4,29.95,SW,221,0.0,0.0,24,0.00,,,0.25,Wunderground v.1.15,2013-01-16 21:45:00,
2013-01-16 16:50:00,54.5,18.4,29.95,SW,221,0.0,0.0,24,0.00,,,0.25,Wunderground v.1.15,2013-01-16 21:50:00,
2013-01-16 16:55:00,54.4,18.3,29.96,SW,221,0.0,0.0,24,0.00,,,0.25,Wunderground v.1.15,2013-01-16 21:55:00,
2013-01-16 17:00:00,54.4,18.3,29.96,SW,221,0.0,0.0,24,0.00,,,0.25,Wunderground v.1.15,2013-01-16 22:00:00,
2013-01-16 17:10:00,54.4,18.3,29.95,SW,221,0.0,0.0,24,0.00,,,0.25,Wunderground v.1.15,2013-01-16 22:10:00,
2013-01-16 17:15:00,54.4,17.3,29.96,SW,221,0.0,0.0,23,0.00,,,0.25,Wunderground v.1.15,2013-01-16 22:15:00,
2013-01-16 17:20:00,54.3,17.2,29.96,SW,221,0.0,0.0,23,0.00,,,0.25,Wunderground v.1.15,2013-01-16 22:20:00,
2013-01-16 17:30:00,54.3,17.2,29.96,SW,221,0.0,0.0,23,0.00,,,0.25,Wunderground v.1.15,2013-01-16 22:30:00,
2013-01-16 17:35:00,54.2,17.1,29.96,SW,221,0.0,0.0,23,0.00,,,0.25,Wunderground v.1.15,2013-01-16 22:35:00,
2013-01-16 17:45:00,54.1,17.1,29.96,SW,221,0.0,0.0,23,0.00,,,0.25,Wunderground v.1.15,2013-01-16 22:45:00,
2013-01-16 17:50:00,54.1,17.1,29.96,SW,221,0.0,0.0,23,0.00,,,0.25,Wunderground v.1.15,2013-01-16 22:50:00,
2013-01-16 17:55:00,54.0,17.0,29.96,SW,221,0.0,0.0,23,0.00,,,0.25,Wunderground v.1.15,2013-01-16 22:55:00,
2013-01-16 18:00:00,54.0,17.0,29.96,SW,221,0.0,0.0,23,0.00,,,0.25,Wunderground v.1.15,2013-01-16 23:00:00,
2013-01-16 18:10:00,54.0,17.0,29.96,SW,221,0.0,0.0,23,0.00,,,0.25,Wunderground v.1.15,2013-01-16 23:10:00,
2013-01-16 18:15:00,54.0,17.0,29.97,SW,221,0.0,0.0,23,0.00,,,0.25,Wunderground v.1.15,2013-01-16 23:15:00,
2013-01-16 18:20:00,54.0,17.0,29.96,SW,221,0.0,0.0,23,0.00,,,0.25,Wunderground v.1.15,2013-01-16 23:20:00,
2013-01-16 18:25:00,54.0,17.0,29.96,SW,221,0.0,0.0,23,0.00,,,0.25,Wunderground v.1.15,2013-01-16 23:25:00,
2013-01-16 18:30:00,54.0,17.0,29.96,SW,221,0.0,0.0,23,0.00,,,0.25,Wunderground v.1.15,2013-01-16 23:30:00,
2013-01-16 18:35:00,54.0,17.0,29.96,SW,221,0.0,0.0,23,0.00,,,0.25,Wunderground v.1.15,2013-01-16 23:35:00,
2013-01-16 18:40:00,53.9,16.9,29.96,SW,221,0.0,0.0,23,0.00,,,0.25,Wunderground v.1.15,2013-01-16 23:40:00,
2013-01-16 18:50:00,53.8,16.8,29.96,SW,221,0.0,0.0,23,0.00,,,0.25,Wunderground v.1.15,2013-01-16 23:50:00,
2013-01-16 18:55:00,53.7,16.7,29.96,SW,221,0.0,0.0,23,0.00,,,0.25,Wunderground v.1.15,2013-01-16 23:55:00,
2013-01-16 19:00:00,53.7,16.7,29.96,SW,221,0.0,0.0,23,0.00,,,0.25,Wunderground v.1.15,2013-01-17 00:00:00,
2013-01-16 19:05:00,53.6,16.6,29.96,SW,221,0.0,0.0,23,0.00,,,0.25,Wunderground v.1.15,2013-01-17 00:05:00,
2013-01-16 19:10:00,53.6,16.6,29.97,SW,221,0.0,0.0,23,0.00,,,0.25,Wunderground v.1.15,2013-01-17 00:10:00,
2013-01-16 19:15:00,53.5,16.6,29.97,SW,221,0.0,0.0,23,0.00,,,0.25,Wunderground v.1.15,2013-01-17 00:15:00,
2013-01-16 19:20:00,53.5,16.6,29.97,SW,221,0.0,0.0,23,0.00,,,0.25,Wunderground v.1.15,2013-01-17 00:20:00,
2013-01-16 19:25:00,53.5,16.6,29.97,SW,221,0.0,0.0,23,0.00,,,0.25,Wunderground v.1.15,2013-01-17 00:25:00,
2013-01-16 19:30:00,53.4,16.5,29.97,SW,221,0.0,0.0,23,0.00,,,0.25,Wunderground v.1.15,2013-01-17 00:30:00,
2013-01-16 19:35:00,53.4,16.5,29.97,SW,221,0.0,0.0,23,0.00,,,0.25,Wunderground v.1.15,2013-01-17 00:35:00,
2013-01-16 19:40:00,53.3,16.4,29.97,SW,221,0.0,0.0,23,0.00,,,0.25,Wunderground v.1.15,2013-01-17 00:40:00,
2013-01-16 19:50:00,53.2,16.3,29.96,SW,221,0.0,0.0,23,0.00,,,0.25,Wunderground v.1.15,2013-01-17 00:50:00,
2013-01-16 19:55:00,53.2,16.3,29.96,SW,221,0.0,0.0,23,0.00,,,0.25,Wunderground v.1.15,2013-01-17 00:55:00,
2013-01-16 20:00:00,53.1,16.2,29.96,SW,221,0.0,0.0,23,0.00,,,0.25,Wunderground v.1.15,2013-01-17 01:00:00,
2013-01-16 20:05:00,53.1,16.2,29.96,SW,221,0.0,0.0,23,0.00,,,0.25,Wunderground v.1.15,2013-01-17 01:05:00,
2013-01-16 20:10:00,53.0,16.1,29.96,SW,221,0.0,0.0,23,0.00,,,0.25,Wunderground v.1.15,2013-01-17 01:10:00,
2013-01-16 20:15:00,53.0,16.1,29.96,SW,221,0.0,0.0,23,0.00,,,0.25,Wunderground v.1.15,2013-01-17 01:15:00,
2013-01-16 20:25:00,53.0,16.1,29.97,SW,221,0.0,0.0,23,0.00,,,0.25,Wunderground v.1.15,2013-01-17 01:25:00,
2013-01-16 20:30:00,52.9,16.1,29.97,SW,221,0.0,0.0,23,0.00,,,0.25,Wunderground v.1.15,2013-01-17 01:30:00,
2013-01-16 20:35:00,52.8,16.0,29.97,SW,221,0.0,0.0,23,0.00,,,0.25,Wunderground v.1.15,2013-01-17 01:35:00,
2013-01-16 20:40:00,52.8,16.0,29.97,SW,221,0.0,0.0,23,0.00,,,0.25,Wunderground v.1.15,2013-01-17 01:40:00,
2013-01-16 20:45:00,52.8,16.0,29.97,SW,221,0.0,0.0,23,0.00,,,0.25,Wunderground v.1.15,2013-01-17 01:45:00,
2013-01-16 20:55:00,52.8,16.0,29.97,SW,221,0.0,0.0,23,0.00,,,0.25,Wunderground v.1.15,2013-01-17 01:55:00,
2013-01-16 21:00:00,52.8,16.0,29.97,SW,221,0.0,0.0,23,0.00,,,0.25,Wunderground v.1.15,2013-01-17 02:00:00,
2013-01-16 21:10:00,52.8,16.0,29.97,SW,221,0.0,0.0,23,0.00,,,0.25,Wunderground v.1.15,2013-01-17 02:10:00,
2013-01-16 21:15:00,52.7,15.9,29.97,SW,221,0.0,0.0,23,0.00,,,0.25,Wunderground v.1.15,2013-01-17 02:15:00,
2013-01-16 21:20:00,52.7,15.9,29.97,SW,221,0.0,0.0,23,0.00,,,0.25,Wunderground v.1.15,2013-01-17 02:20:00,
2013-01-16 21:30:00,52.6,15.8,29.98,SW,221,0.0,0.0,23,0.00,,,0.25,Wunderground v.1.15,2013-01-17 02:30:00,
2013-01-16 21:35:00,52.6,15.8,29.98,SW,221,0.0,0.0,23,0.00,,,0.25,Wunderground v.1.15,2013-01-17 02:35:00,
2013-01-16 21:40:00,52.6,15.8,29.98,SW,221,0.0,0.0,23,0.00,,,0.26,Wunderground v.1.15,2013-01-17 02:40:00,
2013-01-16 21:45:00,52.6,15.8,29.97,SW,221,0.0,0.0,23,0.00,,,0.26,Wunderground v.1.15,2013-01-17 02:45:00,
2013-01-16 21:50:00,52.6,15.8,29.98,SW,221,0.0,0.0,23,0.06,,,0.27,Wunderground v.1.15,2013-01-17 02:50:00,
2013-01-16 22:00:00,52.5,15.7,29.97,SW,221,0.0,0.0,23,0.06,,,0.28,Wunderground v.1.15,2013-01-17 03:00:00,
2013-01-16 22:05:00,52.5,15.7,29.97,SW,221,0.0,0.0,23,0.06,,,0.28,Wunderground v.1.15,2013-01-17 03:05:00,
2013-01-16 22:10:00,52.4,15.6,29.98,SW,221,0.0,0.0,23,0.04,,,0.28,Wunderground v.1.15,2013-01-17 03:10:00,
2013-01-16 22:15:00,52.4,15.6,29.97,SW,221,0.0,0.0,23,0.00,,,0.28,Wunderground v.1.15,2013-01-17 03:15:00,
2013-01-16 22:20:00,52.4,15.6,29.97,SW,221,0.0,0.0,23,0.00,,,0.29,Wunderground v.1.15,2013-01-17 03:20:00,
2013-01-16 22:25:00,52.4,15.6,29.97,SW,221,0.0,0.0,23,0.11,,,0.30,Wunderground v.1.15,2013-01-17 03:25:00,
2013-01-16 22:35:00,52.4,15.6,29.96,SW,221,0.0,0.0,23,0.05,,,0.30,Wunderground v.1.15,2013-01-17 03:35:00,
2013-01-16 22:40:00,52.3,15.5,29.96,SW,221,0.0,0.0,23,0.00,,,0.30,Wunderground v.1.15,2013-01-17 03:40:00,
2013-01-16 22:45:00,52.3,15.5,29.96,SW,221,0.0,0.0,23,0.00,,,0.31,Wunderground v.1.15,2013-01-17 03:45:00,
2013-01-16 22:50:00,52.3,15.5,29.96,SW,221,0.0,0.0,23,0.00,,,0.31,Wunderground v.1.15,2013-01-17 03:50:00,
2013-01-16 22:55:00,52.3,15.5,29.95,SW,221,0.0,0.0,23,0.00,,,0.31,Wunderground v.1.15,2013-01-17 03:55:00,
2013-01-16 23:05:00,52.3,15.5,29.95,SW,221,0.0,0.0,23,0.00,,,0.31,Wunderground v.1.15,2013-01-17 04:05:00,
2013-01-16 23:10:00,52.3,15.5,29.95,SW,221,0.0,0.0,23,0.00,,,0.31,Wunderground v.1.15,2013-01-17 04:10:00,
2013-01-16 23:15:00,52.3,15.5,29.95,SW,221,0.0,0.0,23,0.00,,,0.31,Wunderground v.1.15,2013-01-17 04:15:00,
2013-01-16 23:20:00,52.3,16.5,29.94,SW,221,0.0,0.0,24,0.00,,,0.32,Wunderground v.1.15,2013-01-17 04:20:00,
2013-01-16 23:25:00,52.3,16.5,29.94,SW,221,0.0,0.0,24,0.00,,,0.32,Wunderground v.1.15,2013-01-17 04:25:00,
2013-01-16 23:30:00,52.3,16.5,29.94,SW,221,0.0,0.0,24,0.00,,,0.32,Wunderground v.1.15,2013-01-17 04:30:00,
2013-01-16 23:40:00,52.2,16.4,29.95,SW,221,0.0,0.0,24,0.00,,,0.33,Wunderground v.1.15,2013-01-17 04:40:00,
2013-01-16 23:45:00,52.2,16.4,29.95,SW,221,0.0,0.0,24,0.00,,,0.33,Wunderground v.1.15,2013-01-17 04:45:00,
2013-01-16 23:50:00,52.2,16.4,29.95,SW,221,0.0,0.0,24,0.07,,,0.34,Wunderground v.1.15,2013-01-17 04:50:00,
2013-01-16 23:55:00,52.2,16.4,29.94,SW,221,0.0,0.0,24,0.06,,,0.35,Wunderground v.1.15,2013-01-17 04:55:00,